Weather History for Los Angeles, CA

Change the Weather History Date:

Saturday, April 19, 2014

  Actual Average Record
Temperature  
Mean Temperature 63 °F 60 °F  
Max Temperature 67 °F 67 °F 87 °F (2009)
Min Temperature 58 °F 54 °F 46 °F (1995)
Degree Days  
Heating Degree Days 2 5  
Month to date heating degree days 72 108  
Since 1 July heating degree days 717 1258  
Cooling Degree Days 0 0  
Month to date cooling degree days 9 0  
Year to date cooling degree days 44 15  
Growing Degree Days 12 (Base 50)    
Moisture  
Dew Point 54 °F    
Average Humidity 73    
Maximum Humidity 87    
Minimum Humidity 58    
Precipitation  
Precipitation 0.00 in 0.02 in 0.38 in (1988)
Month to date precipitation 0.17 0.51  
Year to date precipitation 3.32 8.32  
Since 1 July precipitation 4.36 12.33  
Sea Level Pressure  
Sea Level Pressure 29.99 in    
Wind  
Wind Speed 7 mph (WSW)    
Max Wind Speed 18 mph    
Max Gust Speed 22 mph    
Visibility 9 miles    
Events      
T = Trace of Precipitation, MM = Missing Value Source: NWS Daily Summary

Daily Weather History Graph

Daily Weather History Graph

Search for Another Location

Airport:

Trip Planner

Search our weather history database for the weather conditions in past years. The results will help you decide how hot, cold, wet, or windy it might be!

Date:

Astronomy

Apr. 19, 2014 Rise Set
Actual Time 6:17 AM PDT 7:28 PM PDT
Civil Twilight 5:51 AM PDT 7:54 PM PDT
Nautical Twilight 5:21 AM PDT 8:24 PM PDT
Astronomical Twilight 4:49 AM PDT 8:56 PM PDT
Moon No Moon Rise 9:47 AM PDT (4/19)
Length of Visible Light 14h 02m
Length of Day
13h 10m
Waning Gibbous, 77% of the Moon is Illuminated
Apr 19
Waning Gibbous
Apr 22
Last Quarter
Apr 28
New
May 6
First Quarter
May 14
Full

Hourly Weather History & Observations

Time (PDT) Temp. Dew Point Humidity Pressure Visibility Wind Dir Wind Speed Gust Speed Precip Events Conditions
12:53 AM 60.1 °F 53.1 °F 78% 29.94 in 10.0 mi ESE 4.6 mph - N/A   Mostly Cloudy
1:53 AM 60.1 °F 53.1 °F 78% 29.94 in 9.0 mi SE 3.5 mph - N/A   Mostly Cloudy
2:53 AM 59.0 °F 53.1 °F 81% 29.94 in 9.0 mi Calm Calm - N/A   Scattered Clouds
3:53 AM 59.0 °F 53.1 °F 81% 29.94 in 9.0 mi Calm Calm - N/A   Mostly Cloudy
4:53 AM 57.9 °F 54.0 °F 87% 29.95 in 8.0 mi West 5.8 mph - N/A   Scattered Clouds
5:23 AM 57.2 °F 55.4 °F 94% 29.96 in 9.0 mi NNW 3.5 mph - N/A   Scattered Clouds
5:48 AM 57.2 °F 55.4 °F 94% 29.96 in 8.0 mi WNW 5.8 mph - N/A   Mostly Cloudy
5:53 AM 59.0 °F 55.0 °F 87% 29.95 in 8.0 mi Calm Calm - N/A   Scattered Clouds
6:53 AM 59.0 °F 55.9 °F 90% 29.97 in 6.0 mi SW 3.5 mph - N/A   Scattered Clouds
7:53 AM 60.1 °F 55.0 °F 83% 29.99 in 6.0 mi WSW 5.8 mph - N/A   Scattered Clouds
8:53 AM 61.0 °F 55.0 °F 81% 29.99 in 7.0 mi West 4.6 mph - N/A   Scattered Clouds
9:53 AM 64.0 °F 53.1 °F 67% 30.00 in 8.0 mi WSW 6.9 mph - N/A   Scattered Clouds
10:53 AM 64.9 °F 54.0 °F 68% 30.02 in 10.0 mi WSW 11.5 mph - N/A   Mostly Cloudy
11:53 AM 64.9 °F 54.0 °F 68% 30.03 in 10.0 mi West 10.4 mph - N/A   Mostly Cloudy
12:53 PM 66.0 °F 53.1 °F 63% 30.02 in 10.0 mi WSW 12.7 mph 19.6 mph N/A   Mostly Cloudy
1:53 PM 66.0 °F 52.0 °F 60% 30.01 in 10.0 mi West 13.8 mph - N/A   Mostly Cloudy
2:53 PM 66.0 °F 54.0 °F 65% 30.00 in 10.0 mi WSW 11.5 mph - N/A   Mostly Cloudy
3:53 PM 66.0 °F 55.0 °F 68% 29.99 in 10.0 mi West 15.0 mph - N/A   Mostly Cloudy
4:53 PM 64.0 °F 55.0 °F 73% 29.99 in 10.0 mi WSW 15.0 mph - N/A   Mostly Cloudy
5:53 PM 64.0 °F 55.0 °F 73% 29.99 in 10.0 mi West 13.8 mph - N/A   Scattered Clouds
6:53 PM 62.1 °F 55.0 °F 78% 29.99 in 10.0 mi WSW 12.7 mph - N/A   Partly Cloudy
7:53 PM 61.0 °F 55.0 °F 81% 29.99 in 10.0 mi West 8.1 mph - N/A   Partly Cloudy
8:53 PM 61.0 °F 55.0 °F 81% 30.01 in 9.0 mi SW 4.6 mph - N/A   Partly Cloudy
9:53 PM 61.0 °F 55.0 °F 81% 30.02 in 10.0 mi South 5.8 mph - N/A   Clear
10:53 PM 61.0 °F 55.0 °F 81% 30.05 in 10.0 mi WSW 3.5 mph - N/A   Clear
11:53 PM 60.1 °F 55.0 °F 83% 30.05 in 10.0 mi Calm Calm - N/A   Partly Cloudy